Regional Weather Roundup
Issued by NWS Green Bay, WI

Home | Current Version | Previous Version | Text Only | Print | Product List | Glossary On
Versions: 1 2 3 4 5 6 7 8 9 10 11 12 13 14 15 16 17 18 19 20 21 22 23 24 25 26 27 28 29 30 31 32 33 34 35 36 37 38 39 40 41 42 43 44 45 46 47 48 49 50
000
ASUS43 KGRB 300411
RWRGRB

NORTH-CENTRAL AND NORTHEAST WISCONSIN REGIONAL WEATHER ROUNDUP
NATIONAL WEATHER SERVICE GREEN BAY WI
1100 PM CDT SAT AUG 29 2015

WIZ005-009-010>012-018-019-300500-
NORTH CENTRAL WISCONSIN

CITY           SKY/WX    TMP DP  RH WIND       PRES   REMARKS
IRONWOOD       CLEAR     61  59  94 CALM      29.99S
MANITOWISH WTR CLEAR     59  59 100 S3        30.04S
ARBOR VITAE    CLEAR     62  60  94 SW5       30.05S
EAGLE RIVER    CLEAR     61  60  96 CALM      30.05S
LAND O LAKES   CLEAR     60  59  97 CALM      30.06S
RHINELANDER    CLEAR     61  59  93 SW6       30.07S
PHILLIPS       CLEAR     60  60  99 S5        30.04S
ANTIGO         PTCLDY    55  55 100 CALM      30.07S FOG
TOMAHAWK       CLEAR     58  56  96 CALM      30.06S FOG
MERRILL        FOG       55  55 100 CALM      30.07S VSB 1/4
$$

WIZ013-073-300500-
NORTHEAST WISCONSIN

CITY           SKY/WX    TMP DP  RH WIND       PRES   REMARKS
IRON MOUNTAIN  CLEAR     61  59  93 S5        30.03S
MARINETTE      CLEAR     61  57  88 SW5       30.04S
OCONTO         CLOUDY    55  55 100 CALM      30.05S VSB 3/4
$$

WIZ017-030-035>037-045-300500-
CENTRAL WISCONSIN

CITY           SKY/WX    TMP DP  RH WIND       PRES   REMARKS
MEDFORD        CLEAR     56  56 100 S5        30.06S FOG
WAUSAU         PTCLDY    59  58  96 CALM      30.05S FOG
MOSINEE        PTCLDY    55  55 100 CALM      30.07F FOG
MARSHFIELD     CLEAR     60  55  83 CALM      30.06F
WISC RAPIDS    CLOUDY    63  59  87 CALM      30.08S
STEVENS POINT  PTCLDY    58  57  96 CALM      30.07S
WAUPACA        PTCLDY    60  59  97 CALM      30.06S FOG
SHAWANO        FOG       57  56  95 CALM      30.06S VSB<1/4
CLINTONVILLE   FOG       55  55 100 CALM      30.05F VSB 1/2
WAUTOMA        CLOUDY    64  64 100 CALM      30.07S
$$

WIZ038-039-048-051-300500-
FOX VALLEY

CITY           SKY/WX    TMP DP  RH WIND       PRES   REMARKS
NWS GREEN BAY  PTCLDY    61  59  93 S3        30.05F FOG
APPLETON       CLOUDY    64  63  94 VRB5      30.04F
OSHKOSH        CLOUDY    65  62  90 S5        30.05F
FOND DU LAC    CLOUDY    64  63  96 S3        30.06F
$$

WIZ022-050-052-300500-
EAST CENTRAL WISCONSIN

CITY           SKY/WX    TMP DP  RH WIND       PRES   REMARKS
EPHRAIM        FAIR      58  58  98 S5        30.05S FOG
STURGEON BAY   CLEAR     59  55  88 S7        30.08S
MANITOWOC      MOCLDY    55  55 100 MISG      30.06F FOG
SHEBOYGAN      CLOUDY    63  61  93 CALM      30.06F FOG
$$

LMZ563-521-522-541>543-300500-
LAKESHORE

STATION/POSITION TIME  TEMP    WIND        PRES    VSBY  WAVE
                       AIR SEA DIR/SP/G                  HT/PER
                 (UTC) (F)     (DEG/KT/KT) (MB)    (MI)  (FT/S)
SHEBOYGAN LKSHOR 0400   61      20/  1/  1 1018.1F
ALGOMA MARINA    0314             CALM       N/A
NORTHPORT PIER   0300   62     190/  4/  7 1017.6S
N MID LAKE BUOY  0350   63 65  210/  8/ 10 1017.4S         1
S GREEN BAY BUOY 0400   63 62  190/  8/ 10 1018.9F
SISTER BAY LKSHO 0319   62     150/  8/  9   N/A
CHAMBERS ISLAND  0300   62     150/  3/  6 1017.6S
$$


USA.gov is the U.S. government's official web portal to all federal, state and local government web resources and services.